COSMOS 482 DESCENT CRAFT

Last updated on Thu Nov 21 2024 00:02:11 GMT+0000 (Coordinated Universal Time)

1 06073U 72023E 24325.53196475 .00186783 91054-5 21304-3 0 9996 2 06073 51.9847 3.9829 0509637 211.2984 145.6712 15.11309324724884
UTC large
Height (km)
Speed (km/s)
/
Latitude / Longitude
Inclination (degrees)
Orbital Period (minutes)
Azimuth
Elevation
Range (km)
Doppler Factor

Next 0 passes for location: London (51.5072 / 0.1276)

Sorry there are no passes over London.